YURI (BS) 1 10792U 78039A 21063.64070431 -.00000340 00000-0 00000-0 0 9991 2 10792 10.1274 306.0481 0012477 273.6334 279.1794 1.00244128 99400 DELTA 1 R/B(1) 1 10793U 78039B 21063.74433493 .00000162 00000-0 18620-4 0 9996 2 10793 28.2335 306.4645 0883501 231.0730 120.7756 13.05434125 41207